| time (UTC) | temp F | wind direction | speed MPH | gust MPH | rain 1hr in | rain 24hr in | rain mn in | humidity % | barometer mb |
| 20260506072114 | 48 | 210 | 1.0 | 10.0 | 0.00 | 0.00 | 0.00 | 75 | 1008.4 |
| 20260506062113 | 49 | 235 | 2.0 | 10.0 | 0.00 | 0.00 | 0.00 | 75 | 1008.4 |
| 20260506045114 | 49 | 204 | 1.0 | 10.0 | 0.00 | 0.00 | 0.00 | 79 | 1008.1 |
| 20260506042114 | 49 | 200 | 3.0 | 10.0 | 0.00 | 0.00 | 0.00 | 81 | 1008.2 |
| 20260506035113 | 49 | 189 | 0.0 | 10.0 | 0.00 | 0.00 | 0.00 | 82 | 1008.0 |
| 20260506032114 | 49 | 106 | 4.0 | 10.0 | 0.00 | 0.00 | 0.00 | 84 | 1007.3 |
| 20260506025112 | 49 | 208 | 3.0 | 10.0 | 0.00 | 0.00 | 0.00 | 84 | 1006.7 |
| 20260506022113 | 49 | 248 | 4.0 | 10.0 | 0.00 | 0.00 | 0.00 | 82 | 1006.7 |
| 20260506015113 | 49 | 215 | 4.0 | 10.0 | 0.00 | 0.00 | 0.00 | 82 | 1006.2 |
| 20260506012113 | 50 | 193 | 0.0 | 10.0 | 0.00 | 0.00 | 0.00 | 82 | 1005.9 |
| 20260506005113 | 50 | 189 | 0.0 | 10.0 | 0.00 | 0.00 | 0.00 | 80 | 1005.0 |
| 20260506002114 | 51 | 149 | 2.0 | 10.0 | 0.00 | 0.00 | 0.00 | 76 | 1004.7 |
| 20260505232113 | 53 | 167 | 1.0 | 10.0 | 0.00 | 0.00 | 0.00 | 75 | 1004.7 |
| 20260505225113 | 53 | 211 | 4.0 | 10.0 | 0.00 | 0.00 | 0.00 | 76 | 1003.9 |
| 20260505202114 | 54 | 135 | 1.0 | 10.0 | 0.00 | 0.00 | 0.00 | 81 | 1002.9 |
| 20260505195114 | 55 | 209 | 7.0 | 10.0 | 0.00 | 0.00 | 0.00 | 80 | 1002.1 |
| 20260505185113 | 57 | 90 | 1.0 | 10.0 | 0.00 | 0.00 | 0.00 | 81 | 1001.6 |
| 20260505182113 | 57 | 221 | 5.0 | 10.0 | 0.00 | 0.00 | 0.00 | 81 | 1001.3 |
| 20260505175114 | 58 | 114 | 0.0 | 10.0 | 0.00 | 0.00 | 0.00 | 82 | 1000.8 |
| 20260505172114 | 58 | 201 | 6.0 | 10.0 | 0.00 | 0.00 | 0.00 | 83 | 1000.5 |
| 20260505165116 | 60 | 208 | 0.0 | 10.0 | 0.00 | 0.00 | 0.00 | 82 | 999.6 |
| 20260505152115 | 73 | 210 | 0.0 | 10.0 | 0.00 | 0.00 | 0.00 | 77 | 996.8 |
| 20260505075215 | 70 | 318 | 3.0 | 10.0 | 0.00 | 0.00 | 0.00 | 79 | 994.3 |
| 20260505075113 | 70 | 318 | 3.0 | 10.0 | 0.00 | 0.00 | 0.00 | 79 | 994.3 |